Weather History for KONP - September, 2012

Change the Weather History Date:

Saturday, September 15, 2012

  Actual Average (KEUG) Record (KEUG)
Temperature  
Mean Temperature 53 °F 62 °F  
Max Temperature 60 °F 78 °F 96 °F (1981)
Min Temperature 46 °F 47 °F 36 °F (1969)
Degree Days  
Heating Degree Days 12 4  
Month to date heating degree days 39  
Since 1 July heating degree days 106  
Cooling Degree Days 0 1  
Month to date cooling degree days 22  
Year to date cooling degree days 230  
Growing Degree Days 3 (Base 50)    
Moisture  
Dew Point 51 °F    
Average Humidity 88    
Maximum Humidity 100    
Minimum Humidity 77    
Precipitation  
Precipitation 0.00 in 0.04 in 1.17 in (1963)
Month to date precipitation 0.54  
Year to date precipitation 26.55  
Sea Level Pressure  
Sea Level Pressure 30.18 in    
Wind  
Wind Speed 4 mph (NNW)    
Max Wind Speed 22 mph    
Max Gust Speed 26 mph    
Visibility 8 miles    
Events      
T = Trace of Precipitation, MM = Missing Value Source: NWS Daily Summary

Daily Weather History Graph

Daily Weather History Graph

Search for Another Location

Airport or City:

Trip Planner

Search our weather history database for the weather conditions in past years. The results will help you decide how hot, cold, wet, or windy it might be!

Date:

Astronomy

Sep. 15, 2012 Rise Set
Actual Time 6:55 AM PDT 7:25 PM PDT
Civil Twilight 6:26 AM PDT 7:54 PM PDT
Nautical Twilight 5:51 AM PDT 8:29 PM PDT
Astronomical Twilight 5:16 AM PDT 9:05 PM PDT
Moon 6:34 AM PDT (9/15) 6:56 PM PDT (9/15)
Length of Visible Light 13h 28m
Length of Day
12h 29m
Waning Crescent, 0% of the Moon is Illuminated
Sep 15
Waning Crescent
Sep 15
New
Sep 22
First Quarter
Sep 29
Full
Oct 8
Last Quarter

Hourly Weather History & Observations

Time (PDT) Temp. Dew Point Humidity Pressure Visibility Wind Dir Wind Speed Gust Speed Precip Events Conditions
12:15 AM 51.8 °F 50.0 °F 94% 30.15 in 2.5 mi Calm Calm - N/A   Overcast
12:35 AM 51.8 °F 50.0 °F 94% 30.16 in 2.0 mi Calm Calm - N/A   Overcast
1:15 AM 50.0 °F 50.0 °F 100% 30.16 in 4.0 mi Calm Calm - N/A   Overcast
1:35 AM 51.8 °F 50.0 °F 94% 30.16 in 4.0 mi Calm Calm - N/A   Overcast
1:55 AM 51.8 °F 50.0 °F 94% 30.16 in 5.0 mi Calm Calm - N/A   Overcast
2:15 AM 51.8 °F 50.0 °F 94% 30.16 in 5.0 mi Calm Calm - N/A   Overcast
2:35 AM 51.8 °F 50.0 °F 94% 30.17 in 5.0 mi Calm Calm - N/A   Overcast
2:55 AM 51.8 °F 50.0 °F 94% 30.17 in 5.0 mi Calm Calm - N/A   Overcast
3:15 AM 51.8 °F 50.0 °F 94% 30.17 in 5.0 mi Calm Calm - N/A   Overcast
3:35 AM 51.8 °F 50.0 °F 94% 30.16 in 7.0 mi Calm Calm - N/A   Overcast
3:55 AM 51.8 °F 50.0 °F 94% 30.16 in 7.0 mi Calm Calm - N/A   Overcast
4:15 AM 51.8 °F 50.0 °F 94% 30.16 in 10.0 mi Calm Calm - N/A   Overcast
4:35 AM 51.8 °F 50.0 °F 94% 30.16 in 10.0 mi Calm Calm - N/A   Overcast
4:55 AM 53.6 °F 50.0 °F 88% 30.16 in 10.0 mi Calm Calm - N/A   Overcast
5:15 AM 53.6 °F 50.0 °F 88% 30.16 in 10.0 mi NE 4.6 mph - N/A   Overcast
5:35 AM 53.6 °F 50.0 °F 88% 30.16 in 10.0 mi Calm Calm - N/A   Overcast
5:55 AM 53.6 °F 51.8 °F 94% 30.16 in 10.0 mi North 3.5 mph - N/A   Overcast
6:15 AM 53.6 °F 50.0 °F 88% 30.17 in 10.0 mi Calm Calm - N/A   Overcast
6:35 AM 53.6 °F 51.8 °F 94% 30.17 in 10.0 mi North 3.5 mph - N/A   Overcast
6:55 AM 51.8 °F 50.0 °F 94% 30.16 in 10.0 mi Calm Calm - N/A   Overcast
7:15 AM 51.8 °F 50.0 °F 94% 30.17 in 10.0 mi ENE 3.5 mph - N/A   Overcast
7:35 AM 51.8 °F 50.0 °F 94% 30.17 in 10.0 mi Calm Calm - N/A   Overcast
7:55 AM 51.8 °F 50.0 °F 94% 30.18 in 10.0 mi Calm Calm - N/A   Overcast
8:15 AM 53.6 °F 50.0 °F 88% 30.18 in 10.0 mi North 3.5 mph - N/A   Overcast
8:35 AM 53.6 °F 50.0 °F 88% 30.18 in 10.0 mi Calm Calm - N/A   Overcast
8:55 AM 53.6 °F 50.0 °F 88% 30.19 in 10.0 mi Calm Calm - N/A   Overcast
9:15 AM 53.6 °F 50.0 °F 88% 30.19 in 10.0 mi NNE 3.5 mph - N/A   Scattered Clouds
9:35 AM 53.6 °F 50.0 °F 88% 30.19 in 10.0 mi NW 3.5 mph - N/A   Scattered Clouds
9:55 AM 55.4 °F 50.0 °F 82% 30.20 in 7.0 mi NW 5.8 mph - N/A   Clear
10:15 AM 55.4 °F 50.0 °F 82% 30.20 in 10.0 mi NW 5.8 mph - N/A   Clear
10:35 AM 53.6 °F 50.0 °F 88% 30.20 in 7.0 mi NW 3.5 mph - N/A   Clear
10:55 AM 57.2 °F 51.8 °F 82% 30.21 in 10.0 mi NW 6.9 mph - N/A   Clear
11:15 AM 55.4 °F 50.0 °F 82% 30.21 in 10.0 mi NW 8.1 mph - N/A   Clear
12:15 PM 55.4 °F 51.8 °F 88% 30.21 in 7.0 mi NNW 11.5 mph - N/A   Scattered Clouds
12:35 PM 59.0 °F 51.8 °F 77% 30.19 in 10.0 mi NNW 10.4 mph - N/A   Scattered Clouds
12:55 PM 59.0 °F 51.8 °F 77% 30.20 in 7.0 mi NNW 12.7 mph - N/A   Clear
1:15 PM 57.2 °F 51.8 °F 82% 30.20 in 10.0 mi NNW 13.8 mph - N/A   Clear
1:35 PM 59.0 °F 51.8 °F 77% 30.20 in 7.0 mi NNW 10.4 mph - N/A   Clear
1:55 PM 59.0 °F 51.8 °F 77% 30.20 in 7.0 mi NNW 10.4 mph 18.4 mph N/A   Clear
2:15 PM 59.0 °F 53.6 °F 82% 30.19 in 10.0 mi NNW 11.5 mph 17.3 mph N/A   Clear
2:35 PM 60.8 °F 53.6 °F 77% 30.19 in 10.0 mi NNW 15.0 mph 19.6 mph N/A   Clear
2:55 PM 60.8 °F 53.6 °F 77% 30.19 in 10.0 mi NNW 16.1 mph 21.9 mph N/A   Clear
3:15 PM 60.8 °F 53.6 °F 77% 30.18 in 7.0 mi NNW 13.8 mph 25.3 mph N/A   Clear
3:35 PM 60.8 °F 53.6 °F 77% 30.18 in 7.0 mi NNW 21.9 mph 26.5 mph N/A   Clear
3:55 PM 59.0 °F 53.6 °F 82% 30.18 in 7.0 mi NNW 17.3 mph 25.3 mph N/A   Clear
4:15 PM 59.0 °F 53.6 °F 82% 30.19 in 7.0 mi North 15.0 mph 25.3 mph N/A   Clear
4:35 PM 59.0 °F 53.6 °F 82% 30.18 in 7.0 mi NNW 17.3 mph 23.0 mph N/A   Clear
4:55 PM 59.0 °F 53.6 °F 82% 30.18 in 7.0 mi NNW 17.3 mph 23.0 mph N/A   Clear
5:15 PM 59.0 °F 53.6 °F 82% 30.18 in 7.0 mi NNW 13.8 mph 20.7 mph N/A   Clear
5:35 PM 59.0 °F 53.6 °F 82% 30.18 in 7.0 mi NNW 16.1 mph 24.2 mph N/A   Clear
5:55 PM 57.2 °F 51.8 °F 82% 30.17 in 7.0 mi NNW 17.3 mph 25.3 mph N/A   Clear
6:15 PM 55.4 °F 51.8 °F 88% 30.17 in 7.0 mi NNW 15.0 mph - N/A   Clear
6:35 PM 55.4 °F 51.8 °F 88% 30.18 in 7.0 mi North 13.8 mph 21.9 mph N/A   Clear
6:55 PM 55.4 °F 51.8 °F 88% 30.18 in 5.0 mi North 15.0 mph 18.4 mph N/A   Clear
7:15 PM 53.6 °F 50.0 °F 88% 30.18 in 7.0 mi North 12.7 mph - N/A   Clear
7:35 PM 53.6 °F 50.0 °F 88% 30.18 in 7.0 mi NNW 10.4 mph - N/A   Clear
7:55 PM 53.6 °F 50.0 °F 88% 30.18 in 7.0 mi NNW 10.4 mph - N/A   Clear
8:15 PM 53.6 °F 50.0 °F 88% 30.18 in 7.0 mi NNW 9.2 mph - N/A   Clear
8:35 PM 53.6 °F 50.0 °F 88% 30.19 in 7.0 mi North 8.1 mph - N/A   Clear
8:55 PM 53.6 °F 50.0 °F 88% 30.19 in 7.0 mi NNW 9.2 mph - N/A   Clear
9:15 PM 53.6 °F 50.0 °F 88% 30.19 in 7.0 mi North 8.1 mph - N/A   Clear
9:35 PM 53.6 °F 50.0 °F 88% 30.19 in 5.0 mi NNW 6.9 mph - N/A   Clear
9:55 PM 51.8 °F 50.0 °F 94% 30.20 in 5.0 mi NNW 9.2 mph - N/A   Clear
10:15 PM 51.8 °F 48.2 °F 88% 30.20 in 7.0 mi NNW 4.6 mph - N/A   Clear
10:35 PM 48.2 °F 44.6 °F 87% 30.20 in 7.0 mi Calm Calm - N/A   Clear
10:55 PM 50.0 °F 46.4 °F 87% 30.21 in 7.0 mi North 4.6 mph - N/A   Clear
11:15 PM 51.8 °F 48.2 °F 88% 30.21 in 7.0 mi Calm Calm - N/A   Clear
11:35 PM 46.4 °F 44.6 °F 93% 30.20 in 7.0 mi Calm Calm - N/A   Clear
11:55 PM 46.4 °F 44.6 °F 93% 30.20 in 7.0 mi Calm Calm - N/A   Clear